Regional Weather Roundup
Issued by NWS

Home | Current Version | Previous Version | Text Only | Print | Product List | Glossary On
Versions: 1 2 3 4 5 6 7 8 9 10 11 12 13 14 15 16 17 18 19 20 21 22 23 24 25 26 27 28 29 30 31 32 33 34 35 36 37 38 39 40 41 42 43 44 45 46 47 48 49 50
000
ASUS43 KDTX 220010
RWRMI
MICHIGAN HOURLY REGIONAL WEATHER ROUNDUP
NATIONAL WEATHER SERVICE DETROIT/PONTIAC MI
700 PM EST TUE NOV 21 2017

NOTE: "FAIR" INDICATES FEW OR NO CLOUDS BELOW 12,000 FEET WITH NO
SIGNIFICANT WEATHER AND/OR OBSTRUCTION TO VISIBILITY.

MIZ047>049-052>055-059>063-066>070-074>076-081>083-220100-
SOUTHEAST LOWER MICHIGAN

CITY           SKY/WX    TMP DP  RH WIND       PRES   REMARKS
ADRIAN         LGT RAIN  37  34  89 W9        29.95R WCI  30
6HR MIN TEMP:  37; 6HR MAX TEMP:  47; 6HR PCP:  0.04;

ALMA           CLOUDY    37  24  59 NW9       29.94R WCI  30
ANN ARBOR      LGT RAIN  37  34  89 SW17G25   29.93R FOG     WCI  27
BAD AXE        CLOUDY    38  27  63 NW13      29.89R WCI  30
6HR MIN TEMP:  38; 6HR MAX TEMP:  47;

CARO           CLOUDY    37  26  64 NW9G20    29.89R WCI  30
DETROIT CITY   LGT RAIN  40  37  89 W12       29.91R WCI  33
6HR MIN TEMP:  40; 6HR MAX TEMP:  50; 6HR PCP:  0.05;

DETROIT        LGT RAIN  40  36  86 W18       29.92R WCI  31
6HR MIN TEMP:  40; 6HR MAX TEMP:  49; 6HR PCP:  0.05;

FLINT          CLOUDY    38  32  79 W10       29.91R WCI  31
6HR MIN TEMP:  38; 6HR MAX TEMP:  49; 6HR PCP:  0.04;

GROSSE ILE     MIX PCPN  40  38  89 W6        29.91R
6HR MIN TEMP:  40; 6HR MAX TEMP:  49; 6HR PCP:  0.03;

HILLSDALE      CLOUDY    36  32  87 W13G18    29.93R WCI  27
HOWELL         CLOUDY    38  34  88 W10G17    29.91R WCI  30
6HR MIN TEMP:  38; 6HR MAX TEMP:  49; 6HR PCP:  0.04;


CITY           SKY/WX    TMP DP  RH WIND       PRES   REMARKS
JACKSON        CLOUDY    37  28  70 W12       29.94R WCI  29
6HR MIN TEMP:  37; 6HR MAX TEMP:  49; 6HR PCP:  0.05;

LAMBERTVILLE   LGT RAIN  41  37  84 W13G20    29.94R
6HR MIN TEMP:  41; 6HR MAX TEMP:  52;

LANSING        PTCLDY    35  27  72 W10       29.94R WCI  27
6HR MIN TEMP:  35; 6HR MAX TEMP:  44; 6HR PCP:  0.06;

LAPEER         CLOUDY    39  32  77 NW8       29.89R WCI  33
6HR MIN TEMP:  38; 6HR MAX TEMP:  50; 6HR PCP:  0.01;

MASON          CLOUDY    38  31  74 W8        29.94R WCI  32
MONROE         RAIN      41  37  84 W13       29.92R
6HR MIN TEMP:  41; 6HR MAX TEMP:  50; 6HR PCP:  0.01;

MT. CLEMENS    LGT RAIN  39  39 100 NW9       29.88R FOG     WCI  33
6HR MIN TEMP:  39; 6HR MAX TEMP:  50; 6HR PCP:  0.10;

PONTIAC        CLOUDY    38  35  89 W12       29.89R WCI  30
6HR MIN TEMP:  38; 6HR MAX TEMP:  50;

PORT HOPE        N/A     38  27  64 NW22G29   29.86R WCI  27
6HR MIN TEMP:  38; 6HR MAX TEMP:  49;

PORT HURON     LGT RAIN  37  34  87 CALM      29.89R
TRI CITIES     CLOUDY    38  23  55 NW16      29.93R WCI  29
6HR MIN TEMP:  38; 6HR MAX TEMP:  47;

MIDLAND        CLOUDY    36  22  58 NW13G25   29.94R WCI  27
6HR MIN TEMP:  36; 6HR MAX TEMP:  48;

TROY           LGT RAIN  42  38  86 W8        29.91R
SAGINAW HB     CLOUDY    36  25  64 NW14      29.91R WCI  27
$$
MIZ043>046-050>051-056>058-064>065-071>073-077>080-220100-
SOUTHWEST LOWER MICHIGAN

CITY           SKY/WX    TMP DP  RH WIND       PRES   REMARKS
BATTLE CREEK   CLOUDY    35  28  75 NW9       29.97R WCI  28
6HR MIN TEMP:  35; 6HR MAX TEMP:  46; 6HR PCP:  0.06;

BENTON HARBOR  CLOUDY    36  23  59 NW9G18    30.03R WCI  29
6HR MIN TEMP:  36; 6HR MAX TEMP:  43; 6HR PCP:  0.02;

BIG RAPIDS     CLOUDY    32  20  62 NW9       29.96R WCI  24
6HR MIN TEMP:  32; 6HR MAX TEMP:  40;

COLDWATER      CLOUDY    36  29  78 NW14      29.96R WCI  27
6HR MIN TEMP:  36; 6HR MAX TEMP:  48;

FREMONT        CLOUDY    33  21  62 NW13      29.99R WCI  24
HOLLAND        CLOUDY    36  24  62 NW13G25   30.01R WCI  27
6HR MIN TEMP:  36; 6HR MAX TEMP:  43; 6HR PCP: TRACE;

GRAND RAPIDS   CLOUDY    36  26  67 NW14      29.97R WCI  27
6HR MIN TEMP:  36; 6HR MAX TEMP:  41; 6HR PCP:  0.02;

IONIA          CLOUDY    36  26  65 W10       29.95R WCI  29
6HR MIN TEMP:  36; 6HR MAX TEMP:  42;

KALAMAZOO      CLOUDY    36  25  64 NW12      29.99R WCI  28
6HR MIN TEMP:  36; 6HR MAX TEMP:  43; 6HR PCP:  0.05;

LUDINGTON      CLOUDY    32  19  59 N14G21    30.01R WCI  22
6HR MIN TEMP:  32; 6HR MAX TEMP:  38;

MARSHALL       CLOUDY    35  28  75 W9        29.96R WCI  28
6HR MIN TEMP:  35; 6HR MAX TEMP:  47; 6HR PCP:  0.02;

MOUNT PLEASANT CLOUDY    36  21  54 NW12G21   29.94R WCI  27
6HR MIN TEMP:  36; 6HR MAX TEMP:  46;

MUSKEGON       CLOUDY    35  20  54 NW14G26   30.02R WCI  26
6HR MIN TEMP:  35; 6HR MAX TEMP:  42;

SOUTH HAVEN    CLOUDY    37  24  60 NW9G21    30.02R WCI  30
$$
MIZ016>042-220100-
NORTHERN LOWER MICHIGAN

CITY           SKY/WX    TMP DP  RH WIND       PRES   REMARKS
ALPENA         CLOUDY    32  20  61 W13G21    29.89R WCI  22
6HR MIN TEMP:  32; 6HR MAX TEMP:  43; 6HR PCP: TRACE;

BEAVER ISLAND  LGT SNOW  29  24  82 NW16G22   29.97R WCI  17
6HR MIN TEMP:  29; 6HR MAX TEMP:  35;

BELLAIRE       CLOUDY    31  22  70 NW6       29.97R WCI  25
6HR MIN TEMP:  31; 6HR MAX TEMP:  38;

CADILLAC       CLOUDY    29  19  65 NW15      29.94R WCI  18
CHARLEVOIX     CLOUDY    31  21  66 NW22      29.99R WCI  18
6HR MIN TEMP:  31; 6HR MAX TEMP:  36;

FRANKFORT      CLOUDY    32  20  62 NW14G21   30.01R WCI  22
GAYLORD        FLURRIES  27  18  69 NW14G23   29.89R WCI  16
6HR MIN TEMP:  27; 6HR MAX TEMP:  35; 6HR PCP: TRACE;

GRAYLING       FLURRIES  29  20  71 NW10G16   29.93R WCI  19
6HR MIN TEMP:  29; 6HR MAX TEMP:  39;

HARBOR SPRINGS CLOUDY    29  17  61 W13G21    29.94R WCI  19
HOUGHTON LAKE  CLOUDY    30  19  63 NW14G24   29.93R WCI  19
6HR MIN TEMP:  30; 6HR MAX TEMP:  41; 6HR PCP: TRACE;

MANISTEE       FLURRIES  32  21  64 NW12      30.01  WCI  23
OSCODA         CLOUDY    35  20  54 NW13G18   29.89R WCI  26
6HR MIN TEMP:  35; 6HR MAX TEMP:  47;

PELLSTON       CLOUDY    29  19  66 NW24G31   29.94R WCI  15
6HR MIN TEMP:  29; 6HR MAX TEMP:  36; 6HR PCP: TRACE;

ROGERS CITY    CLOUDY    30  20  65 W16G24    29.90R WCI  19
TRAVERSE CITY  FLURRIES  32  21  64 NW14G22   29.97R WCI  22
6HR MIN TEMP:  32; 6HR MAX TEMP:  40; 6HR PCP: TRACE;

$$
MIZ007>008-015-220100-
EASTERN UPPER MICHIGAN

CITY           SKY/WX    TMP DP  RH WIND       PRES   REMARKS
KINROSS        FLURRIES  27  20  75 NW17G25   29.88R WCI  14
6HR MIN TEMP:  27; 6HR MAX TEMP:  33;

MACKINAC ISLAN CLOUDY    29  18  63 NW17G26   29.92R WCI  17
6HR MIN TEMP:  29; 6HR MAX TEMP:  35;

NEWBERRY       CLOUDY    25  18  76 NW13G26   29.92R WCI  13
6HR MIN TEMP:  25; 6HR MAX TEMP:  30;

S. S. MARIE    FLURRIES  28  19  69 NW20G26   29.87R WCI  15
6HR MIN TEMP:  28; 6HR MAX TEMP:  33; 6HR PCP:  0.02;

MUNISING         N/A     29  21  72 N22G36    29.99R WCI  15
6HR MIN TEMP:  27; 6HR MAX TEMP:  30; 6HR PCP:  0.01;

$$
MIZ004>006-011>014-085-220100-
CENTRAL UPPER MICHIGAN

CITY           SKY/WX    TMP DP  RH WIND       PRES   REMARKS
MANISTIQUE     FLURRIES  25  14  63 NW16      29.98R WCI  12
ESCANABA       FLURRIES  24  13  62 NW16G22   30.05R WCI  11
6HR MIN TEMP:  24; 6HR MAX TEMP:  32; 6HR PCP: TRACE;

MENOMINEE      FLURRIES  26  13  57 N13       30.08R WCI  15
6HR MIN TEMP:  26; 6HR MAX TEMP:  32; 6HR PCP: TRACE;

SAWYER-GWINN   CLOUDY    21  14  73 NW10G22   30.01R WCI  10
$$
MIZ001>003-009>011-084-220100-
WESTERN UPPER MICHIGAN

CITY           SKY/WX    TMP DP  RH WIND       PRES   REMARKS
IRON MOUNTAIN  CLOUDY    22  11  62 NW17G25   30.04R WCI   8
6HR MIN TEMP:  22; 6HR MAX TEMP:  27; 6HR PCP: TRACE;

HOUGHTON       LGT SNOW  22  15  75 NW23G31   30.02R WCI   6
6HR MIN TEMP:  20; 6HR MAX TEMP:  23; 6HR PCP: TRACE;

COPPER HARBOR    N/A     27  20  75 N28G37    30.02R WCI  11
6HR MIN TEMP:  25; 6HR MAX TEMP:  27;

IRONWOOD       FLURRIES  21  13  71 NW12      30.12R WCI   9
6HR MIN TEMP:  20; 6HR MAX TEMP:  22; 6HR PCP: TRACE;

$$

ABBREVIATIONS USED IN REMARKS
   TC - TEMPERATURE IN CELSIUS
  WCI - WIND CHILL INDEX
   HX - HEAT INDEX
  VSB - VISIBILITY





USA.gov is the U.S. government's official web portal to all federal, state and local government web resources and services.